owner,sensor,date,latitude,longitude,vertical_datum,wind_speed,wind_to_direction,wind_speed_of_gust,qcFlag 
TCOON,ioos:station:TCOON:518:1,2015-01-05T19:18:00Z,29.5150,-94.5133,0.0,4.1,46.0,5.0,'1111122,1111122,1111122' 
TCOON,ioos:station:TCOON:518:1,2015-01-05T20:24:00Z,29.5150,-94.5133,0.0,2.3,118.0,3.3,'1111122,1111122,1111122' 
TCOON,ioos:station:TCOON:518:1,2015-01-05T21:18:00Z,29.5150,-94.5133,0.0,2.9,53.0,3.8,'1111122,1111122,1111122' 
TCOON,ioos:station:TCOON:518:1,2015-01-05T22:24:00Z,29.5150,-94.5133,0.0,1.7,68.0,2.3,'1111122,1111122,1111122' 
TCOON,ioos:station:TCOON:518:1,2015-01-06T18:42:00Z,29.5150,-94.5133,0.0,2.1,178.0,2.8,'1111122,1111122,1111122' 
TCOON,ioos:station:TCOON:518:1,2015-01-06T19:12:00Z,29.5150,-94.5133,0.0,2.2,162.0,3.1,'1111122,1111122,1111122' 
TCOON,ioos:station:TCOON:518:1,2015-01-06T20:24:00Z,29.5150,-94.5133,0.0,0.3,230.0,2.2,'1111122,1111122,1111122' 
TCOON,ioos:station:TCOON:518:1,2015-01-06T21:24:00Z,29.5150,-94.5133,0.0,1.5,167.0,2.6,'1111122,1111122,1111122' 
TCOON,ioos:station:TCOON:518:1,2015-01-06T22:18:00Z,29.5150,-94.5133,0.0,2.5,192.0,3.7,'1111122,1111122,1111122' 
TCOON,ioos:station:TCOON:518:1,2015-01-07T20:06:00Z,29.5150,-94.5133,0.0,5.8,41.0,6.7,'1111122,1111122,1111122' 
TCOON,ioos:station:TCOON:518:1,2015-01-07T20:36:00Z,29.5150,-94.5133,0.0,8.2,30.0,11.3,'1111122,1111122,1111122' 
TCOON,ioos:station:TCOON:518:1,2015-01-07T21:24:00Z,29.5150,-94.5133,0.0,8.2,34.0,9.7,'1111122,1111122,1111122' 
TCOON,ioos:station:TCOON:518:1,2015-01-08T19:18:00Z,29.5150,-94.5133,0.0,3.8,135.0,4.8,'1111122,1111122,1111122' 
TCOON,ioos:station:TCOON:518:1,2015-01-08T20:18:00Z,29.5150,-94.5133,0.0,2.7,135.0,4.2,'1111122,1111122,1111122' 
TCOON,ioos:station:TCOON:518:1,2015-01-10T16:42:00Z,29.5150,-94.5133,0.0,7.3,75.0,9.2,'1111122,1111122,1111122' 
TCOON,ioos:station:TCOON:518:1,2015-01-15T17:48:00Z,29.5150,-94.5133,0.0,8.4,11.0,9.6,'1111122,1111122,1111122' 
TCOON,ioos:station:TCOON:518:1,2015-01-15T18:24:00Z,29.5150,-94.5133,0.0,6.6,8.0,7.9,'1111122,1111122,1111122' 
TCOON,ioos:station:TCOON:518:1,2015-01-15T19:24:00Z,29.5150,-94.5133,0.0,5.2,16.0,6.0,'1111122,1111122,1111122' 
TCOON,ioos:station:TCOON:518:1,2015-01-15T20:30:00Z,29.5150,-94.5133,0.0,3.9,1.0,4.6,'1111122,1111122,1111122' 
TCOON,ioos:station:TCOON:518:1,2015-01-15T21:18:00Z,29.5150,-94.5133,0.0,5.2,17.0,7.3,'1111122,1111122,1111122' 
TCOON,ioos:station:TCOON:518:1,2015-01-16T18:54:00Z,29.5150,-94.5133,0.0,3.2,159.0,4.2,'1111122,1111122,1111122' 
TCOON,ioos:station:TCOON:518:1,2015-01-16T19:18:00Z,29.5150,-94.5133,0.0,3.0,154.0,3.5,'1111122,1111122,1111122' 
TCOON,ioos:station:TCOON:518:1,2015-01-16T20:24:00Z,29.5150,-94.5133,0.0,2.8,160.0,3.4,'1111122,1111122,1111122' 
TCOON,ioos:station:TCOON:518:1,2015-01-16T21:18:00Z,29.5150,-94.5133,0.0,2.3,199.0,3.9,'1111122,1111122,1111122' 
TCOON,ioos:station:TCOON:518:1,2015-01-16T22:18:00Z,29.5150,-94.5133,0.0,1.8,217.0,3.0,'1111122,1111122,1111122' 
TCOON,ioos:station:TCOON:518:1,2015-01-17T19:18:00Z,29.5150,-94.5133,0.0,3.3,171.0,4.6,'1111122,1111122,1111122' 
TCOON,ioos:station:TCOON:518:1,2015-01-17T20:24:00Z,29.5150,-94.5133,0.0,4.2,172.0,5.4,'1111122,1111122,1111122' 
TCOON,ioos:station:TCOON:518:1,2015-01-17T21:18:00Z,29.5150,-94.5133,0.0,2.5,189.0,4.3,'1111122,1111122,1111122' 
TCOON,ioos:station:TCOON:518:1,2015-01-17T22:30:00Z,29.5150,-94.5133,0.0,2.4,199.0,4.2,'1111122,1111122,1111122' 
TCOON,ioos:station:TCOON:518:1,2015-01-18T18:30:00Z,29.5150,-94.5133,0.0,1.4,153.0,1.8,'1111122,1111122,1111122' 
TCOON,ioos:station:TCOON:518:1,2015-01-18T19:18:00Z,29.5150,-94.5133,0.0,1.8,129.0,2.5,'1111122,1111122,1111122' 
TCOON,ioos:station:TCOON:518:1,2015-01-18T20:18:00Z,29.5150,-94.5133,0.0,3.5,136.0,4.0,'1111122,1111122,1111122' 
TCOON,ioos:station:TCOON:518:1,2015-01-18T21:18:00Z,29.5150,-94.5133,0.0,2.8,183.0,4.3,'1111122,1111122,1111122' 
TCOON,ioos:station:TCOON:518:1,2015-01-18T22:18:00Z,29.5150,-94.5133,0.0,2.0,210.0,3.3,'1111122,1111122,1111122' 
TCOON,ioos:station:TCOON:518:1,2015-01-18T23:18:00Z,29.5150,-94.5133,0.0,0.9,216.0,2.2,'1111122,1111122,1111122' 
TCOON,ioos:station:TCOON:518:1,2015-01-19T19:18:00Z,29.5150,-94.5133,0.0,5.3,121.0,5.9,'1111122,1111122,1111122' 
TCOON,ioos:station:TCOON:518:1,2015-01-19T20:30:00Z,29.5150,-94.5133,0.0,5.4,126.0,6.3,'1111122,1111122,1111122' 
TCOON,ioos:station:TCOON:518:1,2015-01-19T21:18:00Z,29.5150,-94.5133,0.0,5.7,126.0,6.5,'1111122,1111122,1111122' 
TCOON,ioos:station:TCOON:518:1,2015-01-19T22:18:00Z,29.5150,-94.5133,0.0,5.9,137.0,6.6,'1111122,1111122,1111122' 
TCOON,ioos:station:TCOON:518:1,2015-01-19T23:18:00Z,29.5150,-94.5133,0.0,5.3,138.0,6.0,'1111122,1111122,1111122' 
TCOON,ioos:station:TCOON:518:1,2015-01-20T15:42:00Z,29.5150,-94.5133,0.0,1.1,230.0,2.0,'1111122,1111122,1111122' 
TCOON,ioos:station:TCOON:518:1,2015-01-20T16:18:00Z,29.5150,-94.5133,0.0,0.9,238.0,1.3,'1111122,1111122,1111122' 
TCOON,ioos:station:TCOON:518:1,2015-01-20T17:18:00Z,29.5150,-94.5133,0.0,1.6,338.0,1.7,'1111122,1111122,1111122' 
TCOON,ioos:station:TCOON:518:1,2015-01-20T18:18:00Z,29.5150,-94.5133,0.0,2.3,181.0,3.2,'1111122,1111122,1111122' 
TCOON,ioos:station:TCOON:518:1,2015-01-20T19:18:00Z,29.5150,-94.5133,0.0,2.7,163.0,3.4,'1111122,1111122,1111122' 
TCOON,ioos:station:TCOON:518:1,2015-01-20T20:18:00Z,29.5150,-94.5133,0.0,3.1,152.0,3.7,'1111122,1111122,1111122' 
TCOON,ioos:station:TCOON:518:1,2015-01-20T21:18:00Z,29.5150,-94.5133,0.0,2.9,140.0,3.3,'1111122,1111122,1111122' 
TCOON,ioos:station:TCOON:518:1,2015-01-20T22:18:00Z,29.5150,-94.5133,0.0,3.4,153.0,3.8,'1111122,1111122,1111122' 
TCOON,ioos:station:TCOON:518:1,2015-01-20T23:18:00Z,29.5150,-94.5133,0.0,4.5,142.0,5.0,'1111122,1111122,1111122' 
TCOON,ioos:station:TCOON:518:1,2015-01-21T00:18:00Z,29.5150,-94.5133,0.0,3.8,146.0,4.4,'1111122,1111122,1111122' 
TCOON,ioos:station:TCOON:518:1,2015-01-21T01:24:00Z,29.5150,-94.5133,0.0,3.4,162.0,4.0,'1111122,1111122,1111122' 
TCOON,ioos:station:TCOON:518:1,2015-01-21T17:00:00Z,29.5150,-94.5133,0.0,6.2,95.0,8.6,'1111122,1111122,1111122' 
TCOON,ioos:station:TCOON:518:1,2015-01-21T17:24:00Z,29.5150,-94.5133,0.0,6.8,98.0,8.6,'1111122,1111122,1111122' 
TCOON,ioos:station:TCOON:518:1,2015-01-21T18:24:00Z,29.5150,-94.5133,0.0,6.8,102.0,8.8,'1111122,1111122,1111122' 
TCOON,ioos:station:TCOON:518:1,2015-01-21T19:18:00Z,29.5150,-94.5133,0.0,5.2,83.0,6.4,'1111122,1111122,1111122' 
TCOON,ioos:station:TCOON:518:1,2015-01-21T20:18:00Z,29.5150,-94.5133,0.0,5.4,112.0,6.6,'1111122,1111122,1111122' 
TCOON,ioos:station:TCOON:518:1,2015-01-21T21:18:00Z,29.5150,-94.5133,0.0,6.1,124.0,7.5,'1111122,1111122,1111122' 
TCOON,ioos:station:TCOON:518:1,2015-01-21T22:18:00Z,29.5150,-94.5133,0.0,6.6,115.0,8.2,'1111122,1111122,1111122' 
TCOON,ioos:station:TCOON:518:1,2015-01-21T23:36:00Z,29.5150,-94.5133,0.0,3.7,131.0,4.5,'1111122,1111122,1111122' 
TCOON,ioos:station:TCOON:518:1,2015-01-22T00:24:00Z,29.5150,-94.5133,0.0,3.6,99.0,4.3,'1111122,1111122,1111122' 
TCOON,ioos:station:TCOON:518:1,2015-01-22T01:24:00Z,29.5150,-94.5133,0.0,3.8,97.0,4.7,'1111122,1111122,1111122' 
TCOON,ioos:station:TCOON:518:1,2015-01-22T02:18:00Z,29.5150,-94.5133,0.0,5.6,67.0,6.4,'1111122,1111122,1111122' 
TCOON,ioos:station:TCOON:518:1,2015-01-22T03:18:00Z,29.5150,-94.5133,0.0,4.4,90.0,6.9,'1111122,1111122,1111122' 
TCOON,ioos:station:TCOON:518:1,2015-01-23T17:54:00Z,29.5150,-94.5133,0.0,7.7,11.0,9.1,'1111122,1111122,1111122' 
TCOON,ioos:station:TCOON:518:1,2015-01-24T19:18:00Z,29.5150,-94.5133,0.0,5.1,270.0,7.4,'1111122,1111122,1111122' 
TCOON,ioos:station:TCOON:518:1,2015-01-24T20:36:00Z,29.5150,-94.5133,0.0,2.5,222.0,5.1,'1111122,1111122,1111122' 
TCOON,ioos:station:TCOON:518:1,2015-01-24T21:18:00Z,29.5150,-94.5133,0.0,3.5,226.0,5.9,'1111122,1111122,1111122' 
TCOON,ioos:station:TCOON:518:1,2015-01-24T22:24:00Z,29.5150,-94.5133,0.0,3.8,229.0,6.7,'1111122,1111122,1111122' 
TCOON,ioos:station:TCOON:518:1,2015-01-25T19:18:00Z,29.5150,-94.5133,0.0,5.7,276.0,7.9,'1111122,1111122,1111122' 
TCOON,ioos:station:TCOON:518:1,2015-01-25T20:18:00Z,29.5150,-94.5133,0.0,4.7,281.0,7.5,'1111122,1111122,1111122' 
TCOON,ioos:station:TCOON:518:1,2015-01-25T21:24:00Z,29.5150,-94.5133,0.0,4.0,282.0,6.6,'1111122,1111122,1111122' 
TCOON,ioos:station:TCOON:518:1,2015-01-25T22:18:00Z,29.5150,-94.5133,0.0,4.3,281.0,6.1,'1111122,1111122,1111122' 
TCOON,ioos:station:TCOON:518:1,2015-01-25T23:18:00Z,29.5150,-94.5133,0.0,3.9,288.0,4.6,'1111122,1111122,1111122' 
TCOON,ioos:station:TCOON:518:1,2015-01-26T18:30:00Z,29.5150,-94.5133,0.0,4.0,276.0,5.4,'1111122,1111122,1111122' 
TCOON,ioos:station:TCOON:518:1,2015-01-26T19:18:00Z,29.5150,-94.5133,0.0,4.8,295.0,6.3,'1111122,1111122,1111122' 
TCOON,ioos:station:TCOON:518:1,2015-01-26T20:18:00Z,29.5150,-94.5133,0.0,4.7,301.0,6.0,'1111122,1111122,1111122' 
TCOON,ioos:station:TCOON:518:1,2015-01-26T21:18:00Z,29.5150,-94.5133,0.0,4.4,292.0,5.3,'1111122,1111122,1111122' 
TCOON,ioos:station:TCOON:518:1,2015-01-26T22:36:00Z,29.5150,-94.5133,0.0,2.0,299.0,2.9,'1111122,1111122,1111122' 
TCOON,ioos:station:TCOON:518:1,2015-01-26T23:24:00Z,29.5150,-94.5133,0.0,1.7,269.0,2.1,'1111122,1111122,1111122' 
TCOON,ioos:station:TCOON:518:1,2015-01-27T00:18:00Z,29.5150,-94.5133,0.0,1.5,211.0,2.4,'1111122,1111122,1111122' 
TCOON,ioos:station:TCOON:518:1,2015-01-27T01:18:00Z,29.5150,-94.5133,0.0,1.4,228.0,1.9,'1111122,1111122,1111122' 
TCOON,ioos:station:TCOON:518:1,2015-01-27T18:54:00Z,29.5150,-94.5133,0.0,3.2,298.0,4.1,'1111122,1111122,1111122' 
TCOON,ioos:station:TCOON:518:1,2015-01-27T19:18:00Z,29.5150,-94.5133,0.0,3.4,300.0,4.1,'1111122,1111122,1111122' 
TCOON,ioos:station:TCOON:518:1,2015-01-27T20:18:00Z,29.5150,-94.5133,0.0,2.4,287.0,3.6,'1111122,1111122,1111122' 
TCOON,ioos:station:TCOON:518:1,2015-01-27T21:18:00Z,29.5150,-94.5133,0.0,2.3,274.0,3.2,'1111122,1111122,1111122' 
TCOON,ioos:station:TCOON:518:1,2015-01-27T22:24:00Z,29.5150,-94.5133,0.0,2.2,213.0,3.3,'1111122,1111122,1111122' 
TCOON,ioos:station:TCOON:518:1,2015-01-27T23:18:00Z,29.5150,-94.5133,0.0,2.4,182.0,3.8,'1111122,1111122,1111122' 
TCOON,ioos:station:TCOON:518:1,2015-01-28T00:18:00Z,29.5150,-94.5133,0.0,1.9,189.0,3.0,'1111122,1111122,1111122' 
TCOON,ioos:station:TCOON:518:1,2015-01-28T01:24:00Z,29.5150,-94.5133,0.0,2.3,166.0,2.6,'1111122,1111122,1111122' 
TCOON,ioos:station:TCOON:518:1,2015-01-28T02:18:00Z,29.5150,-94.5133,0.0,2.1,202.0,2.8,'1111122,1111122,1111122' 
TCOON,ioos:station:TCOON:518:1,2015-01-28T03:24:00Z,29.5150,-94.5133,0.0,1.4,193.0,2.3,'1111122,1111122,1111122' 
TCOON,ioos:station:TCOON:518:1,2015-01-28T04:18:00Z,29.5150,-94.5133,0.0,2.0,195.0,2.6,'1111122,1111122,1111122' 
TCOON,ioos:station:TCOON:518:1,2015-01-28T19:24:00Z,29.5150,-94.5133,0.0,5.2,145.0,6.2,'1111122,1111122,1111122' 
TCOON,ioos:station:TCOON:518:1,2015-01-28T20:18:00Z,29.5150,-94.5133,0.0,4.6,162.0,5.9,'1111122,1111122,1111122' 
TCOON,ioos:station:TCOON:518:1,2015-01-28T21:18:00Z,29.5150,-94.5133,0.0,4.9,156.0,5.7,'1111122,1111122,1111122' 
TCOON,ioos:station:TCOON:518:1,2015-01-28T22:30:00Z,29.5150,-94.5133,0.0,4.6,166.0,6.2,'1111122,1111122,1111122' 
TCOON,ioos:station:TCOON:518:1,2015-01-28T23:18:00Z,29.5150,-94.5133,0.0,4.3,169.0,5.5,'1111122,1111122,1111122' 
TCOON,ioos:station:TCOON:518:1,2015-01-29T00:24:00Z,29.5150,-94.5133,0.0,1.8,183.0,2.3,'1111122,1111122,1111122' 
TCOON,ioos:station:TCOON:518:1,2015-01-29T01:18:00Z,29.5150,-94.5133,0.0,2.4,166.0,2.8,'1111122,1111122,1111122' 
TCOON,ioos:station:TCOON:518:1,2015-01-29T02:18:00Z,29.5150,-94.5133,0.0,2.0,179.0,2.9,'1111122,1111122,1111122' 
TCOON,ioos:station:TCOON:518:1,2015-01-29T03:18:00Z,29.5150,-94.5133,0.0,2.0,181.0,2.5,'1111122,1111122,1111122' 
TCOON,ioos:station:TCOON:518:1,2015-01-29T04:18:00Z,29.5150,-94.5133,0.0,1.2,153.0,1.4,'1111122,1111122,1111122' 
TCOON,ioos:station:TCOON:518:1,2015-01-29T05:18:00Z,29.5150,-94.5133,0.0,2.2,148.0,2.2,'1111122,1111122,1111122' 
TCOON,ioos:station:TCOON:518:1,2015-01-29T17:24:00Z,29.5150,-94.5133,0.0,0.1,360.0,1.9,'1111122,1111122,1111122' 
TCOON,ioos:station:TCOON:518:1,2015-01-29T18:30:00Z,29.5150,-94.5133,0.0,2.3,235.0,3.4,'1111122,1111122,1111122' 
TCOON,ioos:station:TCOON:518:1,2015-01-29T19:18:00Z,29.5150,-94.5133,0.0,2.0,298.0,3.1,'1111122,1111122,1111122' 
TCOON,ioos:station:TCOON:518:1,2015-01-29T20:18:00Z,29.5150,-94.5133,0.0,2.9,210.0,4.6,'1111122,1111122,1111122' 
TCOON,ioos:station:TCOON:518:1,2015-01-29T21:18:00Z,29.5150,-94.5133,0.0,2.8,199.0,4.1,'1111122,1111122,1111122' 
TCOON,ioos:station:TCOON:518:1,2015-01-29T22:24:00Z,29.5150,-94.5133,0.0,2.7,209.0,4.6,'1111122,1111122,1111122' 
TCOON,ioos:station:TCOON:518:1,2015-01-29T23:24:00Z,29.5150,-94.5133,0.0,2.1,208.0,3.4,'1111122,1111122,1111122' 
TCOON,ioos:station:TCOON:518:1,2015-01-30T00:18:00Z,29.5150,-94.5133,0.0,1.8,209.0,2.6,'1111122,1111122,1111122' 
TCOON,ioos:station:TCOON:518:1,2015-01-30T01:18:00Z,29.5150,-94.5133,0.0,1.3,234.0,1.8,'1111122,1111122,1111122' 
TCOON,ioos:station:TCOON:518:1,2015-01-30T02:18:00Z,29.5150,-94.5133,0.0,1.6,231.0,2.4,'1111122,1111122,1111122' 
TCOON,ioos:station:TCOON:518:1,2015-01-30T03:18:00Z,29.5150,-94.5133,0.0,2.2,244.0,2.8,'1111122,1111122,1111122' 
TCOON,ioos:station:TCOON:518:1,2015-01-30T04:18:00Z,29.5150,-94.5133,0.0,1.9,265.0,2.3,'1111122,1111122,1111122' 
TCOON,ioos:station:TCOON:518:1,2015-01-30T05:18:00Z,29.5150,-94.5133,0.0,2.8,283.0,3.6,'1111122,1111122,1111122' 
TCOON,ioos:station:TCOON:518:1,2015-01-30T06:54:00Z,29.5150,-94.5133,0.0,6.4,27.0,7.4,'1111122,1111122,1111122' 
TCOON,ioos:station:TCOON:518:1,2015-01-30T07:18:00Z,29.5150,-94.5133,0.0,6.1,35.0,7.4,'1111122,1111122,1111122' 
TCOON,ioos:station:TCOON:518:1,2015-01-30T08:18:00Z,29.5150,-94.5133,0.0,5.9,27.0,7.2,'1111122,1111122,1111122' 
TCOON,ioos:station:TCOON:518:1,2015-01-30T09:18:00Z,29.5150,-94.5133,0.0,6.3,29.0,7.6,'1111122,1111122,1111122' 
TCOON,ioos:station:TCOON:518:1,2015-01-30T15:24:00Z,29.5150,-94.5133,0.0,6.7,62.0,8.0,'1111122,1111122,1111122' 
TCOON,ioos:station:TCOON:518:1,2015-01-30T16:18:00Z,29.5150,-94.5133,0.0,7.7,55.0,9.1,'1111122,1111122,1111122' 
TCOON,ioos:station:TCOON:518:1,2015-01-30T17:18:00Z,29.5150,-94.5133,0.0,5.5,53.0,7.0,'1111122,1111122,1111122' 
TCOON,ioos:station:TCOON:518:1,2015-01-30T18:18:00Z,29.5150,-94.5133,0.0,5.8,51.0,7.9,'1111122,1111122,1111122' 
TCOON,ioos:station:TCOON:518:1,2015-01-30T19:18:00Z,29.5150,-94.5133,0.0,6.2,51.0,7.0,'1111122,1111122,1111122' 
TCOON,ioos:station:TCOON:518:1,2015-01-30T20:18:00Z,29.5150,-94.5133,0.0,6.8,110.0,7.9,'1111122,1111122,1111122' 
TCOON,ioos:station:TCOON:518:1,2015-01-30T21:18:00Z,29.5150,-94.5133,0.0,7.2,114.0,8.2,'1111122,1111122,1111122' 
TCOON,ioos:station:TCOON:518:1,2015-01-30T22:18:00Z,29.5150,-94.5133,0.0,6.0,107.0,7.3,'1111122,1111122,1111122' 
TCOON,ioos:station:TCOON:518:1,2015-01-30T23:18:00Z,29.5150,-94.5133,0.0,5.5,124.0,6.3,'1111122,1111122,1111122' 
TCOON,ioos:station:TCOON:518:1,2015-01-31T00:18:00Z,29.5150,-94.5133,0.0,5.4,113.0,6.2,'1111122,1111122,1111122' 
TCOON,ioos:station:TCOON:518:1,2015-01-31T01:18:00Z,29.5150,-94.5133,0.0,4.2,105.0,5.0,'1111122,1111122,1111122' 
TCOON,ioos:station:TCOON:518:1,2015-01-31T02:18:00Z,29.5150,-94.5133,0.0,4.3,107.0,5.3,'1111122,1111122,1111122' 
TCOON,ioos:station:TCOON:518:1,2015-01-31T03:18:00Z,29.5150,-94.5133,0.0,3.6,75.0,4.5,'1111122,1111122,1111122' 
TCOON,ioos:station:TCOON:518:1,2015-01-31T04:18:00Z,29.5150,-94.5133,0.0,4.4,82.0,5.0,'1111122,1111122,1111122' 
TCOON,ioos:station:TCOON:518:1,2015-01-31T05:12:00Z,29.5150,-94.5133,0.0,4.9,87.0,6.3,'1111122,1111122,1111122' 
TCOON,ioos:station:TCOON:518:1,2015-01-31T06:18:00Z,29.5150,-94.5133,0.0,8.2,102.0,9.2,'1111122,1111122,1111122' 
TCOON,ioos:station:TCOON:518:1,2015-01-31T07:18:00Z,29.5150,-94.5133,0.0,7.2,106.0,9.2,'1111122,1111122,1111122' 
TCOON,ioos:station:TCOON:518:1,2015-01-31T08:18:00Z,29.5150,-94.5133,0.0,8.0,110.0,9.8,'1111122,1111122,1111122' 
TCOON,ioos:station:TCOON:518:1,2015-01-31T09:18:00Z,29.5150,-94.5133,0.0,8.0,108.0,9.4,'1111122,1111122,1111122' 
TCOON,ioos:station:TCOON:518:1,2015-01-31T15:24:00Z,29.5150,-94.5133,0.0,5.7,79.0,6.9,'1111122,1111122,1111122' 
TCOON,ioos:station:TCOON:518:1,2015-01-31T16:12:00Z,29.5150,-94.5133,0.0,6.6,99.0,9.3,'1111122,1111122,1111122' 
TCOON,ioos:station:TCOON:518:1,2015-01-31T17:18:00Z,29.5150,-94.5133,0.0,7.5,101.0,8.7,'1111122,1111122,1111122' 
TCOON,ioos:station:TCOON:518:1,2015-01-31T18:18:00Z,29.5150,-94.5133,0.0,9.3,107.0,10.5,'1111122,1111122,1111122' 
TCOON,ioos:station:TCOON:518:1,2015-01-31T19:18:00Z,29.5150,-94.5133,0.0,8.6,107.0,10.7,'1111122,1111122,1111122' 
TCOON,ioos:station:TCOON:518:1,2015-01-31T20:18:00Z,29.5150,-94.5133,0.0,8.3,110.0,10.1,'1111122,1111122,1111122' 
TCOON,ioos:station:TCOON:518:1,2015-01-31T21:18:00Z,29.5150,-94.5133,0.0,8.0,108.0,9.8,'1111122,1111122,1111122' 
TCOON,ioos:station:TCOON:518:1,2015-01-31T22:18:00Z,29.5150,-94.5133,0.0,7.5,107.0,8.6,'1111122,1111122,1111122' 
TCOON,ioos:station:TCOON:518:1,2015-01-31T23:18:00Z,29.5150,-94.5133,0.0,7.8,106.0,9.3,'1111122,1111122,1111122' 
 
DISCLAIMER: The Gulf of Mexico Coastal and Ocean Observing (GCOOS) Data Portal aggregates data from the regional data providers for the convenience of all data users. Data published on this website should not be used for navigation or certain other uses as we cannot guarantee data accuracy or availability. The data and delivery services are provided 'as is' without warranty of any kind. Data Source: Gulf of Mexico Coastal Ocean Observing System Data Portal (http://data.gcoos.org/) 
